| time (UTC) | temp F | wind direction | speed MPH | gust MPH | rain 1hr in | rain 24hr in | rain mn in | humidity % | barometer mb |
| 20260904134555 | 48 | 282 | 0.0 | 0.0 | 0.00 | 0.01 | 0.01 | 99 | 1012.9 |
| 20260904134048 | 48 | 282 | 0.0 | 0.0 | 0.00 | 0.01 | 0.01 | 99 | 1012.9 |
| 20260904133543 | 48 | 282 | 0.0 | 0.0 | 0.00 | 0.01 | 0.01 | 99 | 1012.9 |
| 20260904133039 | 49 | 282 | 0.0 | 0.0 | 0.00 | 0.01 | 0.01 | 99 | 1012.7 |
| 20260904131244 | 48 | 282 | 0.0 | 0.0 | 0.07 | 0.01 | 0.01 | 99 | 1012.5 |
| 20260904130744 | 48 | 282 | 0.0 | 0.0 | 0.07 | 0.01 | 0.01 | 99 | 1012.5 |
| 20260904130243 | 48 | 282 | 0.0 | 0.0 | 0.07 | 0.01 | 0.01 | 99 | 1012.4 |
| 20260904125550 | 49 | 282 | 0.0 | 0.0 | 0.00 | 0.00 | 0.00 | 99 | 1012.5 |
| 20260904125049 | 49 | 282 | 0.0 | 0.0 | 0.00 | 0.00 | 0.00 | 99 | 1012.5 |
| 20260904124544 | 49 | 282 | 0.0 | 0.0 | 0.00 | 0.00 | 0.00 | 99 | 1012.5 |
| 20260904124040 | 49 | 282 | 0.0 | 0.0 | 0.00 | 0.00 | 0.00 | 99 | 1012.4 |
| 20260904123540 | 49 | 282 | 0.0 | 0.0 | 0.00 | 0.00 | 0.00 | 99 | 1012.5 |
| 20260904123036 | 49 | 283 | 0.0 | 0.0 | 0.00 | 0.00 | 0.00 | 99 | 1012.5 |
| 20260904122531 | 49 | 283 | 0.0 | 0.0 | 0.00 | 0.00 | 0.00 | 99 | 1012.5 |
| 20260904122026 | 49 | 283 | 0.0 | 0.0 | 0.00 | 0.00 | 0.00 | 99 | 1012.4 |
| 20260904121521 | 49 | 283 | 0.0 | 0.0 | 0.00 | 0.00 | 0.00 | 99 | 1012.3 |
| 20260904121017 | 49 | 283 | 0.0 | 0.0 | 0.00 | 0.00 | 0.00 | 99 | 1012.3 |
| 20260904120513 | 49 | 283 | 0.0 | 0.0 | 0.00 | 0.00 | 0.00 | 99 | 1012.3 |
| 20260904120008 | 49 | 283 | 0.0 | 0.0 | 0.00 | 0.00 | 0.00 | 99 | 1012.3 |
| 20260904115504 | 49 | 285 | 0.0 | 0.0 | 0.00 | 0.00 | 0.00 | 99 | 1012.4 |
| 20260904115003 | 49 | 285 | 0.0 | 0.0 | 0.00 | 0.00 | 0.00 | 99 | 1012.3 |
| 20260904114458 | 49 | 285 | 0.0 | 0.0 | 0.00 | 0.00 | 0.00 | 99 | 1012.3 |
| 20260904113953 | 49 | 284 | 0.0 | 0.0 | 0.00 | 0.00 | 0.00 | 99 | 1012.3 |
| 20260904113452 | 49 | 284 | 0.0 | 0.0 | 0.00 | 0.00 | 0.00 | 99 | 1012.3 |
| 20260904112945 | 49 | 284 | 0.0 | 0.0 | 0.00 | 0.00 | 0.00 | 99 | 1012.5 |
| 20260904112441 | 50 | 284 | 0.0 | 0.0 | 0.00 | 0.00 | 0.00 | 99 | 1012.5 |
| 20260904111931 | 50 | 284 | 0.0 | 0.0 | 0.00 | 0.00 | 0.00 | 99 | 1012.4 |
| 20260904111426 | 50 | 286 | 0.0 | 0.0 | 0.00 | 0.00 | 0.00 | 99 | 1012.4 |
| 20260904110917 | 50 | 286 | 0.0 | 0.0 | 0.00 | 0.00 | 0.00 | 99 | 1012.4 |
| 20260904110415 | 50 | 286 | 0.0 | 1.0 | 0.00 | 0.00 | 0.00 | 99 | 1012.3 |
| 20260904105911 | 50 | 286 | 0.0 | 1.0 | 0.00 | 0.00 | 0.00 | 99 | 1012.4 |
| 20260904105406 | 50 | 288 | 0.0 | 0.0 | 0.00 | 0.00 | 0.00 | 99 | 1012.4 |
| 20260904104901 | 50 | 287 | 0.0 | 0.0 | 0.00 | 0.00 | 0.00 | 99 | 1012.2 |
| 20260904104355 | 50 | 288 | 0.0 | 0.0 | 0.00 | 0.00 | 0.00 | 99 | 1012.5 |
| 20260904103853 | 50 | 287 | 0.0 | 0.0 | 0.00 | 0.00 | 0.00 | 99 | 1012.2 |
| 20260904103353 | 51 | 287 | 0.0 | 0.0 | 0.00 | 0.00 | 0.00 | 99 | 1012.4 |
| 20260904102849 | 51 | 288 | 0.0 | 0.0 | 0.00 | 0.00 | 0.00 | 99 | 1012.2 |
| 20260904102344 | 51 | 288 | 0.0 | 0.0 | 0.00 | 0.00 | 0.00 | 99 | 1012.2 |
| 20260904101840 | 51 | 288 | 0.0 | 0.0 | 0.00 | 0.00 | 0.00 | 99 | 1012.2 |
| 20260904101336 | 51 | 288 | 0.0 | 0.0 | 0.00 | 0.00 | 0.00 | 99 | 1012.4 |
| 20260904100831 | 51 | 288 | 0.0 | 0.0 | 0.00 | 0.00 | 0.00 | 99 | 1012.4 |
| 20260904100327 | 52 | 287 | 1.0 | 1.0 | 0.00 | 0.00 | 0.00 | 99 | 1012.4 |
| 20260904095822 | 52 | 287 | 0.0 | 0.0 | 0.00 | 0.00 | 0.00 | 99 | 1012.4 |
| 20260904095316 | 52 | 288 | 0.0 | 0.0 | 0.00 | 0.00 | 0.00 | 99 | 1012.3 |
| 20260904094812 | 51 | 287 | 0.0 | 0.0 | 0.00 | 0.00 | 0.00 | 99 | 1012.3 |
| 20260904094306 | 51 | 287 | 0.0 | 0.0 | 0.00 | 0.00 | 0.00 | 99 | 1012.1 |
| 20260904093803 | 51 | 287 | 0.0 | 0.0 | 0.00 | 0.00 | 0.00 | 99 | 1012.2 |
| 20260904093257 | 51 | 287 | 0.0 | 0.0 | 0.00 | 0.00 | 0.00 | 99 | 1012.0 |
| 20260904092752 | 51 | 287 | 0.0 | 0.0 | 0.00 | 0.00 | 0.00 | 99 | 1012.2 |
| 20260904092249 | 51 | 287 | 0.0 | 0.0 | 0.00 | 0.00 | 0.00 | 99 | 1012.0 |
| 20260904091744 | 51 | 289 | 0.0 | 0.0 | 0.00 | 0.00 | 0.00 | 99 | 1012.1 |
| 20260904091239 | 51 | 289 | 0.0 | 0.0 | 0.00 | 0.00 | 0.00 | 99 | 1012.1 |
| 20260904090735 | 51 | 289 | 0.0 | 0.0 | 0.00 | 0.00 | 0.00 | 99 | 1012.0 |
| 20260904090230 | 51 | 290 | 0.0 | 0.0 | 0.00 | 0.00 | 0.00 | 99 | 1012.2 |
| 20260904085725 | 51 | 290 | 0.0 | 0.0 | 0.00 | 0.00 | 0.00 | 99 | 1012.4 |
| 20260904085220 | 52 | 289 | 0.0 | 0.0 | 0.00 | 0.00 | 0.00 | 99 | 1012.3 |
| 20260904084720 | 52 | 293 | 0.0 | 0.0 | 0.00 | 0.00 | 0.00 | 99 | 1012.3 |
| 20260904084216 | 52 | 297 | 0.0 | 0.0 | 0.00 | 0.00 | 0.00 | 99 | 1012.4 |
| 20260904083712 | 52 | 291 | 0.0 | 0.0 | 0.00 | 0.00 | 0.00 | 99 | 1012.2 |
| 20260904083209 | 52 | 291 | 0.0 | 0.0 | 0.00 | 0.00 | 0.00 | 99 | 1012.5 |
| 20260904082703 | 53 | 291 | 0.0 | 0.0 | 0.00 | 0.00 | 0.00 | 99 | 1012.3 |
| 20260904082159 | 53 | 290 | 0.0 | 0.0 | 0.00 | 0.00 | 0.00 | 99 | 1012.3 |
| 20260904081653 | 53 | 296 | 0.0 | 0.0 | 0.00 | 0.00 | 0.00 | 99 | 1012.3 |
| 20260904081148 | 53 | 298 | 0.0 | 0.0 | 0.00 | 0.00 | 0.00 | 99 | 1012.3 |
| 20260904080645 | 53 | 300 | 0.0 | 0.0 | 0.00 | 0.00 | 0.00 | 99 | 1012.1 |
| 20260904080140 | 53 | 294 | 0.0 | 0.0 | 0.00 | 0.00 | 0.00 | 99 | 1012.2 |
| 20260904075637 | 53 | 297 | 0.0 | 0.0 | 0.00 | 0.00 | 0.00 | 99 | 1012.3 |
| 20260904075137 | 53 | 303 | 0.0 | 0.0 | 0.00 | 0.00 | 0.00 | 99 | 1012.2 |
| 20260904074631 | 53 | 304 | 0.0 | 0.0 | 0.00 | 0.00 | 0.00 | 99 | 1012.3 |
| 20260904074125 | 53 | 287 | 0.0 | 1.0 | 0.00 | 0.00 | 0.00 | 99 | 1012.3 |
| 20260904073620 | 54 | 310 | 0.0 | 0.0 | 0.00 | 0.00 | 0.00 | 99 | 1012.3 |
| 20260904073117 | 53 | 312 | 0.0 | 0.0 | 0.00 | 0.00 | 0.00 | 99 | 1012.3 |
| 20260904072612 | 54 | 312 | 0.0 | 0.0 | 0.00 | 0.00 | 0.00 | 99 | 1012.2 |
| 20260904072107 | 53 | 313 | 0.0 | 0.0 | 0.00 | 0.00 | 0.00 | 99 | 1012.2 |
| 20260904071603 | 54 | 313 | 0.0 | 0.0 | 0.00 | 0.00 | 0.00 | 99 | 1012.2 |
| 20260904071058 | 54 | 304 | 0.0 | 0.0 | 0.00 | 0.00 | 0.00 | 99 | 1012.2 |
| 20260904070556 | 54 | 300 | 0.0 | 0.0 | 0.00 | 0.00 | 0.00 | 99 | 1012.3 |
| 20260904070051 | 54 | 305 | 0.0 | 0.0 | 0.00 | 0.00 | 0.00 | 99 | 1012.2 |
| 20260904065546 | 54 | 300 | 0.0 | 0.0 | 0.00 | 0.76 | 0.76 | 99 | 1012.0 |
| 20260904065043 | 54 | 278 | 1.0 | 1.0 | 0.00 | 0.76 | 0.76 | 99 | 1012.2 |
| 20260904064539 | 54 | 290 | 1.0 | 1.0 | 0.00 | 0.76 | 0.76 | 99 | 1012.2 |
| 20260904064038 | 55 | 290 | 0.0 | 1.0 | 0.00 | 0.76 | 0.76 | 99 | 1012.2 |
| 20260904063535 | 55 | 304 | 0.0 | 0.0 | 0.00 | 0.76 | 0.76 | 99 | 1012.4 |
| 20260904063029 | 55 | 302 | 0.0 | 0.0 | 0.00 | 0.76 | 0.76 | 99 | 1012.3 |
| 20260904062526 | 55 | 300 | 0.0 | 0.0 | 0.00 | 0.76 | 0.76 | 99 | 1012.0 |
| 20260904062021 | 55 | 302 | 0.0 | 0.0 | 0.00 | 0.76 | 0.76 | 99 | 1012.2 |
| 20260904061511 | 55 | 272 | 1.0 | 1.0 | 0.00 | 0.76 | 0.76 | 99 | 1012.1 |
| 20260904061008 | 55 | 301 | 0.0 | 0.0 | 0.00 | 0.76 | 0.76 | 99 | 1012.2 |
| 20260904060503 | 55 | 280 | 0.0 | 1.0 | 0.00 | 0.76 | 0.76 | 99 | 1012.0 |
| 20260904055959 | 55 | 303 | 0.0 | 0.0 | 0.00 | 0.76 | 0.76 | 99 | 1012.3 |
| 20260904055454 | 55 | 304 | 0.0 | 0.0 | 0.00 | 0.76 | 0.76 | 99 | 1012.4 |
| 20260904054950 | 56 | 304 | 0.0 | 0.0 | 0.00 | 0.76 | 0.76 | 99 | 1012.4 |
| 20260904054445 | 56 | 284 | 1.0 | 1.0 | 0.00 | 0.76 | 0.76 | 99 | 1012.2 |
| 20260904053940 | 56 | 313 | 0.0 | 0.0 | 0.00 | 0.76 | 0.76 | 99 | 1012.2 |
| 20260904053440 | 57 | 300 | 0.0 | 0.0 | 0.00 | 0.76 | 0.76 | 99 | 1012.3 |
| 20260904052936 | 57 | 307 | 0.0 | 0.0 | 0.00 | 0.76 | 0.76 | 99 | 1012.6 |
| 20260904052432 | 57 | 301 | 0.0 | 0.0 | 0.00 | 0.76 | 0.76 | 99 | 1012.3 |
| 20260904051928 | 57 | 316 | 0.0 | 1.0 | 0.00 | 0.76 | 0.76 | 98 | 1012.4 |
| 20260904051425 | 57 | 284 | 1.0 | 1.0 | 0.00 | 0.76 | 0.76 | 98 | 1012.6 |
| 20260904050923 | 58 | 283 | 1.0 | 1.0 | 0.00 | 0.76 | 0.76 | 98 | 1012.5 |
| 20260904050420 | 58 | 291 | 0.0 | 0.0 | 0.00 | 0.76 | 0.76 | 98 | 1012.4 |
| 20260904045920 | 58 | 291 | 0.0 | 0.0 | 0.00 | 0.76 | 0.76 | 97 | 1012.5 |
| 20260904045415 | 58 | 288 | 0.0 | 0.0 | 0.00 | 0.76 | 0.76 | 97 | 1012.6 |
| 20260904044914 | 59 | 299 | 0.0 | 0.0 | 0.00 | 0.76 | 0.76 | 97 | 1012.5 |
| 20260904044412 | 59 | 293 | 0.0 | 0.0 | 0.00 | 0.76 | 0.76 | 97 | 1012.5 |
| 20260904043908 | 59 | 294 | 0.0 | 0.0 | 0.00 | 0.76 | 0.76 | 96 | 1012.6 |
| 20260904043404 | 59 | 306 | 0.0 | 0.0 | 0.00 | 0.76 | 0.76 | 96 | 1012.4 |
| 20260904042859 | 59 | 313 | 0.0 | 0.0 | 0.00 | 0.76 | 0.76 | 96 | 1012.4 |
| 20260904042355 | 59 | 321 | 0.0 | 0.0 | 0.00 | 0.76 | 0.76 | 95 | 1012.5 |
| 20260904041849 | 59 | 319 | 0.0 | 0.0 | 0.00 | 0.76 | 0.76 | 95 | 1012.4 |
| 20260904041346 | 59 | 321 | 0.0 | 0.0 | 0.00 | 0.76 | 0.76 | 96 | 1012.4 |
| 20260904040842 | 59 | 300 | 0.0 | 0.0 | 0.00 | 0.76 | 0.76 | 95 | 1012.3 |
| 20260904040337 | 59 | 299 | 0.0 | 0.0 | 0.00 | 0.76 | 0.76 | 95 | 1012.3 |
| 20260904035833 | 59 | 308 | 0.0 | 0.0 | 0.00 | 0.76 | 0.76 | 95 | 1012.4 |
| 20260904035329 | 59 | 306 | 0.0 | 1.0 | 0.00 | 0.76 | 0.76 | 95 | 1012.3 |
| 20260904034827 | 59 | 298 | 1.0 | 1.0 | 0.00 | 0.76 | 0.76 | 95 | 1012.5 |
| 20260904034323 | 59 | 306 | 1.0 | 1.0 | 0.00 | 0.76 | 0.76 | 95 | 1012.3 |
| 20260904033819 | 59 | 317 | 0.0 | 0.0 | 0.00 | 0.76 | 0.76 | 95 | 1012.1 |
| 20260904033315 | 59 | 291 | 0.0 | 0.0 | 0.00 | 0.76 | 0.76 | 95 | 1012.2 |
| 20260904032811 | 59 | 294 | 0.0 | 1.0 | 0.00 | 0.76 | 0.76 | 95 | 1012.2 |
| 20260904032311 | 59 | 309 | 0.0 | 0.0 | 0.00 | 0.76 | 0.76 | 94 | 1012.2 |
| 20260904031805 | 59 | 337 | 0.0 | 0.0 | 0.00 | 0.76 | 0.76 | 94 | 1012.1 |
| 20260904031300 | 59 | 290 | 1.0 | 2.0 | 0.00 | 0.76 | 0.76 | 95 | 1011.9 |
| 20260904030756 | 59 | 327 | 0.0 | 0.0 | 0.00 | 0.76 | 0.76 | 95 | 1012.1 |
| 20260904030251 | 59 | 303 | 1.0 | 2.0 | 0.00 | 0.76 | 0.76 | 95 | 1012.1 |
| 20260904025748 | 59 | 293 | 0.0 | 0.0 | 0.00 | 0.76 | 0.76 | 95 | 1012.2 |
| 20260904025242 | 60 | 305 | 2.0 | 2.0 | 0.00 | 0.76 | 0.76 | 95 | 1012.1 |
| 20260904024732 | 60 | 288 | 0.0 | 1.0 | 0.00 | 0.76 | 0.76 | 95 | 1012.1 |
| 20260904024227 | 60 | 340 | 0.0 | 0.0 | 0.00 | 0.76 | 0.76 | 95 | 1012.1 |
| 20260904023724 | 60 | 304 | 2.0 | 3.0 | 0.00 | 0.76 | 0.76 | 95 | 1012.2 |
| 20260904023219 | 60 | 334 | 0.0 | 0.0 | 0.00 | 0.76 | 0.76 | 95 | 1012.1 |
| 20260904022718 | 60 | 285 | 2.0 | 5.0 | 0.00 | 0.76 | 0.76 | 95 | 1012.2 |
| 20260904022216 | 60 | 316 | 0.0 | 0.0 | 0.00 | 0.76 | 0.76 | 95 | 1012.2 |
| 20260904021712 | 60 | 319 | 0.0 | 0.0 | 0.00 | 0.76 | 0.76 | 94 | 1012.2 |
| 20260904021206 | 60 | 299 | 3.0 | 3.0 | 0.00 | 0.76 | 0.76 | 94 | 1012.4 |
| 20260904020703 | 60 | 315 | 0.0 | 1.0 | 0.00 | 0.76 | 0.76 | 94 | 1012.2 |
| 20260904020201 | 60 | 306 | 1.0 | 2.0 | 0.00 | 0.76 | 0.76 | 94 | 1012.2 |
| 20260904015700 | 60 | 313 | 1.0 | 1.0 | 0.00 | 0.76 | 0.76 | 95 | 1012.3 |
| 20260904015155 | 60 | 262 | 3.0 | 3.0 | 0.00 | 0.76 | 0.76 | 95 | 1012.3 |
| 20260904014654 | 60 | 301 | 1.0 | 1.0 | 0.00 | 0.76 | 0.76 | 95 | 1012.4 |
| 20260904014149 | 60 | 309 | 2.0 | 2.0 | 0.00 | 0.76 | 0.76 | 95 | 1012.2 |
| 20260904013646 | 60 | 260 | 3.0 | 3.0 | 0.00 | 0.76 | 0.76 | 94 | 1012.2 |
| 20260904013141 | 61 | 312 | 1.0 | 2.0 | 0.00 | 0.76 | 0.76 | 94 | 1012.4 |
| 20260904012637 | 61 | 313 | 1.0 | 1.0 | 0.00 | 0.76 | 0.76 | 93 | 1012.3 |
| 20260904012136 | 61 | 307 | 0.0 | 1.0 | 0.00 | 0.76 | 0.76 | 93 | 1012.4 |
| 20260904011635 | 61 | 296 | 0.0 | 1.0 | 0.00 | 0.76 | 0.76 | 94 | 1012.3 |
| 20260904011131 | 61 | 308 | 1.0 | 2.0 | 0.00 | 0.76 | 0.76 | 94 | 1012.3 |
| 20260904010627 | 61 | 299 | 1.0 | 1.0 | 0.00 | 0.76 | 0.76 | 94 | 1012.4 |
| 20260904010123 | 61 | 307 | 0.0 | 1.0 | 0.00 | 0.76 | 0.76 | 93 | 1012.5 |
| 20260904005618 | 62 | 296 | 0.0 | 0.0 | 0.00 | 0.76 | 0.76 | 94 | 1012.4 |
| 20260904005113 | 61 | 267 | 2.0 | 2.0 | 0.00 | 0.76 | 0.76 | 93 | 1012.5 |
| 20260904004609 | 61 | 273 | 2.0 | 2.0 | 0.00 | 0.76 | 0.76 | 92 | 1012.4 |
| 20260904004109 | 61 | 323 | 0.0 | 1.0 | 0.00 | 0.76 | 0.76 | 93 | 1012.5 |
| 20260904003605 | 62 | 301 | 0.0 | 0.0 | 0.00 | 0.76 | 0.76 | 94 | 1012.4 |
| 20260904003101 | 62 | 246 | 4.0 | 5.0 | 0.00 | 0.76 | 0.76 | 93 | 1012.5 |
| 20260904002556 | 62 | 259 | 1.0 | 2.0 | 0.00 | 0.76 | 0.76 | 94 | 1012.4 |
| 20260904002050 | 62 | 287 | 2.0 | 2.0 | 0.00 | 0.76 | 0.76 | 95 | 1012.5 |
| 20260904001546 | 62 | 315 | 0.0 | 1.0 | 0.00 | 0.76 | 0.76 | 96 | 1012.5 |
| 20260904001044 | 61 | 316 | 0.0 | 1.0 | 0.00 | 0.76 | 0.76 | 97 | 1012.7 |
| 20260904000539 | 61 | 230 | 1.0 | 2.0 | 0.00 | 0.76 | 0.76 | 98 | 1012.7 |
| 20260904000035 | 61 | 215 | 2.0 | 2.0 | 0.00 | 0.76 | 0.76 | 98 | 1012.8 |
| 20260903235530 | 61 | 241 | 1.0 | 1.0 | 0.00 | 0.76 | 0.76 | 98 | 1012.9 |
| 20260903235026 | 60 | 296 | 0.0 | 1.0 | 0.00 | 0.76 | 0.76 | 98 | 1013.0 |
| 20260903234521 | 60 | 274 | 1.0 | 1.0 | 0.00 | 0.76 | 0.76 | 98 | 1012.9 |
| 20260903234017 | 60 | 309 | 0.0 | 0.0 | 0.00 | 0.76 | 0.76 | 98 | 1013.1 |
| 20260903233512 | 60 | 264 | 1.0 | 2.0 | 0.00 | 0.76 | 0.76 | 98 | 1013.0 |
| 20260903233008 | 60 | 305 | 0.0 | 1.0 | 0.00 | 0.76 | 0.76 | 97 | 1013.0 |
| 20260903232502 | 60 | 229 | 2.0 | 2.0 | 0.00 | 0.76 | 0.76 | 97 | 1012.9 |
| 20260903231956 | 61 | 298 | 0.0 | 1.0 | 0.00 | 0.76 | 0.76 | 97 | 1013.0 |
| 20260903231451 | 61 | 286 | 1.0 | 1.0 | 0.00 | 0.76 | 0.76 | 97 | 1013.1 |
| 20260903230946 | 61 | 278 | 0.0 | 1.0 | 0.05 | 0.76 | 0.76 | 96 | 1013.3 |
| 20260903230442 | 61 | 242 | 2.0 | 3.0 | 0.05 | 0.76 | 0.76 | 96 | 1013.2 |
| 20260903225939 | 61 | 172 | 1.0 | 2.0 | 0.07 | 0.75 | 0.75 | 95 | 1013.3 |
| 20260903225433 | 62 | 225 | 2.0 | 2.0 | 0.07 | 0.75 | 0.75 | 94 | 1013.4 |
| 20260903224930 | 62 | 329 | 0.0 | 0.0 | 0.00 | 0.74 | 0.74 | 94 | 1013.4 |
| 20260903224425 | 62 | 295 | 0.0 | 0.0 | 0.00 | 0.74 | 0.74 | 93 | 1013.4 |
| 20260903223921 | 63 | 298 | 1.0 | 2.0 | 0.00 | 0.74 | 0.74 | 92 | 1013.6 |
| 20260903223419 | 63 | 229 | 1.0 | 2.0 | 0.00 | 0.74 | 0.74 | 90 | 1013.5 |
| 20260903222913 | 64 | 309 | 1.0 | 1.0 | 0.00 | 0.74 | 0.74 | 87 | 1013.5 |
| 20260903222408 | 65 | 304 | 0.0 | 0.0 | 0.00 | 0.74 | 0.74 | 87 | 1013.4 |
| 20260903221902 | 65 | 278 | 1.0 | 1.0 | 0.00 | 0.74 | 0.74 | 87 | 1013.4 |
| 20260903221401 | 65 | 335 | 0.0 | 0.0 | 0.00 | 0.74 | 0.74 | 87 | 1013.5 |
| 20260903220859 | 64 | 318 | 0.0 | 1.0 | 0.00 | 0.74 | 0.74 | 86 | 1013.2 |
| 20260903220348 | 65 | 227 | 3.0 | 3.0 | 0.00 | 0.74 | 0.74 | 85 | 1013.4 |
| 20260903215846 | 65 | 276 | 1.0 | 1.0 | 0.00 | 0.74 | 0.74 | 86 | 1013.6 |
| 20260903215343 | 66 | 289 | 1.0 | 2.0 | 0.00 | 0.74 | 0.74 | 84 | 1013.4 |
| 20260903214841 | 66 | 321 | 0.0 | 0.0 | 0.00 | 0.74 | 0.74 | 84 | 1013.4 |
| 20260903214337 | 66 | 303 | 3.0 | 5.0 | 0.00 | 0.74 | 0.74 | 84 | 1013.6 |
| 20260903213831 | 66 | 326 | 0.0 | 1.0 | 0.00 | 0.74 | 0.74 | 83 | 1013.7 |
| 20260903213327 | 67 | 284 | 2.0 | 2.0 | 0.00 | 0.74 | 0.74 | 82 | 1013.5 |
| 20260903212823 | 67 | 275 | 0.0 | 2.0 | 0.00 | 0.74 | 0.74 | 83 | 1013.6 |
| 20260903212319 | 67 | 348 | 2.0 | 2.0 | 0.00 | 0.74 | 0.74 | 83 | 1013.6 |
| 20260903211818 | 66 | 322 | 0.0 | 0.0 | 0.00 | 0.74 | 0.74 | 84 | 1013.5 |
| 20260903211315 | 67 | 320 | 2.0 | 2.0 | 0.00 | 0.74 | 0.74 | 83 | 1013.5 |
| 20260903210810 | 67 | 296 | 0.0 | 1.0 | 0.00 | 0.74 | 0.74 | 83 | 1013.7 |
| 20260903210305 | 67 | 281 | 1.0 | 1.0 | 0.00 | 0.74 | 0.74 | 83 | 1013.5 |
| 20260903205759 | 67 | 303 | 1.0 | 1.0 | 0.00 | 0.74 | 0.74 | 85 | 1013.6 |
| 20260903205254 | 67 | 297 | 1.0 | 2.0 | 0.00 | 0.74 | 0.74 | 84 | 1013.7 |
| 20260903204749 | 68 | 280 | 1.0 | 2.0 | 0.00 | 0.74 | 0.74 | 81 | 1013.8 |
| 20260903204245 | 68 | 339 | 1.0 | 2.0 | 0.00 | 0.74 | 0.74 | 82 | 1013.8 |
| 20260903203740 | 68 | 274 | 1.0 | 2.0 | 0.00 | 0.74 | 0.74 | 81 | 1013.6 |
| 20260903203236 | 68 | 310 | 3.0 | 3.0 | 0.00 | 0.74 | 0.74 | 83 | 1013.7 |
| 20260903202734 | 68 | 274 | 1.0 | 1.0 | 0.00 | 0.74 | 0.74 | 83 | 1013.7 |
| 20260903202231 | 68 | 205 | 4.0 | 5.0 | 0.00 | 0.74 | 0.74 | 80 | 1013.5 |
| 20260903201730 | 67 | 285 | 1.0 | 1.0 | 0.00 | 0.74 | 0.74 | 86 | 1013.7 |
| 20260903201226 | 67 | 319 | 1.0 | 1.0 | 0.00 | 0.74 | 0.74 | 86 | 1013.7 |
| 20260903200724 | 67 | 307 | 1.0 | 2.0 | 0.00 | 0.74 | 0.74 | 87 | 1013.8 |
| 20260903200220 | 67 | 221 | 2.0 | 2.0 | 0.00 | 0.74 | 0.74 | 87 | 1013.8 |
| 20260903195716 | 67 | 307 | 2.0 | 2.0 | 0.00 | 0.74 | 0.74 | 87 | 1013.8 |
| 20260903195212 | 66 | 314 | 0.0 | 0.0 | 0.00 | 0.74 | 0.74 | 90 | 1013.9 |
| 20260903194711 | 66 | 238 | 2.0 | 3.0 | 0.00 | 0.74 | 0.74 | 90 | 1014.0 |
| 20260903194207 | 67 | 318 | 2.0 | 2.0 | 0.00 | 0.74 | 0.74 | 91 | 1014.1 |
| 20260903193703 | 66 | 279 | 3.0 | 3.0 | 0.00 | 0.74 | 0.74 | 92 | 1013.8 |
| 20260903193203 | 67 | 256 | 2.0 | 2.0 | 0.00 | 0.74 | 0.74 | 92 | 1014.1 |
| 20260903192659 | 66 | 309 | 1.0 | 2.0 | 0.00 | 0.74 | 0.74 | 97 | 1014.0 |
| 20260903192154 | 65 | 315 | 0.0 | 1.0 | 0.00 | 0.74 | 0.74 | 97 | 1014.2 |
| 20260903191650 | 64 | 287 | 1.0 | 1.0 | 0.00 | 0.74 | 0.74 | 99 | 1014.2 |
| 20260903191150 | 64 | 238 | 0.0 | 1.0 | 0.00 | 0.74 | 0.74 | 99 | 1014.2 |
| 20260903190645 | 63 | 289 | 1.0 | 1.0 | 0.00 | 0.74 | 0.74 | 99 | 1014.2 |
| 20260903190144 | 62 | 309 | 2.0 | 2.0 | 0.00 | 0.74 | 0.74 | 99 | 1014.4 |
| 20260903185640 | 62 | 216 | 3.0 | 5.0 | 0.00 | 0.74 | 0.74 | 99 | 1014.3 |
| 20260903185135 | 63 | 293 | 1.0 | 1.0 | 0.00 | 0.74 | 0.74 | 99 | 1014.4 |
| 20260903184631 | 63 | 253 | 4.0 | 6.0 | 0.00 | 0.74 | 0.74 | 99 | 1014.4 |
| 20260903184127 | 63 | 311 | 1.0 | 1.0 | 0.00 | 0.74 | 0.74 | 99 | 1014.3 |
| 20260903183625 | 63 | 230 | 0.0 | 0.0 | 0.00 | 0.74 | 0.74 | 99 | 1014.4 |
| 20260903183121 | 63 | 247 | 2.0 | 3.0 | 0.00 | 0.74 | 0.74 | 99 | 1014.6 |
| 20260903182620 | 62 | 296 | 1.0 | 1.0 | 0.00 | 0.74 | 0.74 | 99 | 1014.4 |
| 20260903182116 | 62 | 303 | 0.0 | 1.0 | 0.00 | 0.74 | 0.74 | 99 | 1014.4 |
| 20260903181614 | 62 | 280 | 2.0 | 2.0 | 0.00 | 0.74 | 0.74 | 99 | 1014.6 |
| 20260903181109 | 62 | 233 | 3.0 | 3.0 | 0.00 | 0.74 | 0.74 | 99 | 1014.3 |
| 20260903180605 | 62 | 266 | 2.0 | 2.0 | 0.00 | 0.74 | 0.74 | 99 | 1014.4 |
| 20260903180059 | 62 | 205 | 5.0 | 7.0 | 0.00 | 0.74 | 0.74 | 99 | 1014.2 |
| 20260903175558 | 61 | 270 | 3.0 | 5.0 | 0.00 | 0.74 | 0.74 | 99 | 1014.2 |
| 20260903175058 | 61 | 252 | 3.0 | 3.0 | 0.07 | 0.74 | 0.74 | 99 | 1014.2 |
| 20260903174553 | 61 | 320 | 1.0 | 2.0 | 0.07 | 0.74 | 0.74 | 99 | 1014.2 |
| 20260903174047 | 61 | 296 | 1.0 | 2.0 | 0.00 | 0.73 | 0.73 | 99 | 1014.3 |
| 20260903173542 | 62 | 264 | 3.0 | 5.0 | 0.05 | 0.73 | 0.73 | 99 | 1014.2 |
| 20260903173038 | 62 | 309 | 1.0 | 1.0 | 0.12 | 0.73 | 0.73 | 99 | 1014.3 |
| 20260903172533 | 61 | 308 | 3.0 | 3.0 | 0.07 | 0.72 | 0.72 | 99 | 1014.3 |
| 20260903172028 | 61 | 238 | 1.0 | 2.0 | 0.05 | 0.71 | 0.71 | 99 | 1014.2 |
| 20260903171523 | 61 | 248 | 3.0 | 3.0 | 0.05 | 0.71 | 0.71 | 99 | 1014.3 |
| 20260903171018 | 61 | 219 | 3.0 | 3.0 | 0.07 | 0.70 | 0.70 | 99 | 1014.2 |
| 20260903170512 | 62 | 241 | 1.0 | 1.0 | 0.12 | 0.70 | 0.70 | 99 | 1014.1 |
| 20260903170007 | 61 | 238 | 4.0 | 5.0 | 0.17 | 0.69 | 0.69 | 99 | 1014.2 |
| 20260903165505 | 61 | 278 | 1.0 | 1.0 | 0.24 | 0.69 | 0.69 | 99 | 1014.0 |
| 20260903165001 | 61 | 296 | 0.0 | 1.0 | 0.24 | 0.67 | 0.67 | 99 | 1014.0 |
| 20260903164455 | 61 | 240 | 9.0 | 11.0 | 0.24 | 0.65 | 0.65 | 99 | 1014.1 |
| 20260903163956 | 61 | 266 | 3.0 | 5.0 | 0.24 | 0.63 | 0.63 | 99 | 1014.0 |
| 20260903163451 | 61 | 220 | 5.0 | 6.0 | 0.19 | 0.61 | 0.61 | 99 | 1013.8 |
| 20260903162947 | 61 | 240 | 5.0 | 7.0 | 0.12 | 0.60 | 0.60 | 99 | 1013.9 |
| 20260903162443 | 61 | 313 | 2.0 | 3.0 | 0.12 | 0.59 | 0.59 | 99 | 1013.8 |
| 20260903161939 | 61 | 242 | 1.0 | 1.0 | 0.12 | 0.58 | 0.58 | 99 | 1014.1 |
| 20260903161434 | 61 | 287 | 1.0 | 1.0 | 0.12 | 0.57 | 0.57 | 99 | 1014.0 |
| 20260903160930 | 61 | 274 | 4.0 | 6.0 | 0.12 | 0.56 | 0.56 | 99 | 1014.1 |
| 20260903160429 | 61 | 211 | 2.0 | 3.0 | 0.12 | 0.55 | 0.55 | 99 | 1014.1 |
| 20260903155928 | 61 | 247 | 2.0 | 2.0 | 0.12 | 0.54 | 0.54 | 99 | 1014.3 |
| 20260903155423 | 61 | 329 | 3.0 | 5.0 | 0.12 | 0.53 | 0.53 | 99 | 1014.1 |
| 20260903154919 | 61 | 266 | 1.0 | 1.0 | 0.19 | 0.53 | 0.53 | 99 | 1014.3 |
| 20260903154414 | 61 | 241 | 3.0 | 5.0 | 0.07 | 0.51 | 0.51 | 99 | 1014.3 |
| 20260903153909 | 61 | 227 | 3.0 | 5.0 | 0.07 | 0.50 | 0.50 | 99 | 1014.1 |
| 20260903153404 | 61 | 283 | 3.0 | 6.0 | 0.12 | 0.50 | 0.50 | 99 | 1014.3 |
| 20260903152901 | 61 | 273 | 1.0 | 1.0 | 0.19 | 0.48 | 0.48 | 99 | 1014.2 |
| 20260903152356 | 61 | 218 | 6.0 | 7.0 | 0.17 | 0.47 | 0.47 | 99 | 1014.3 |
| 20260903151852 | 61 | 218 | 6.0 | 7.0 | 0.17 | 0.47 | 0.47 | 99 | 1014.3 |
| 20260903151347 | 61 | 291 | 3.0 | 5.0 | 0.17 | 0.45 | 0.45 | 99 | 1014.2 |
| 20260903150846 | 61 | 246 | 0.0 | 1.0 | 0.24 | 0.44 | 0.44 | 99 | 1014.3 |
| 20260903150341 | 61 | 231 | 4.0 | 6.0 | 0.24 | 0.42 | 0.42 | 99 | 1014.2 |
| 20260903145836 | 61 | 221 | 1.0 | 1.0 | 0.19 | 0.40 | 0.40 | 99 | 1014.2 |
| 20260903145332 | 60 | 277 | 1.0 | 2.0 | 0.14 | 0.38 | 0.38 | 99 | 1014.1 |
| 20260903144830 | 60 | 240 | 2.0 | 2.0 | 0.19 | 0.37 | 0.37 | 99 | 1014.1 |
| 20260903144326 | 60 | 244 | 1.0 | 1.0 | 0.17 | 0.36 | 0.36 | 99 | 1014.2 |
| 20260903143821 | 60 | 311 | 1.0 | 2.0 | 0.12 | 0.35 | 0.35 | 99 | 1014.0 |
| 20260903143318 | 60 | 312 | 1.0 | 2.0 | 0.12 | 0.34 | 0.34 | 99 | 1014.2 |
| 20260903142813 | 60 | 268 | 2.0 | 2.0 | 0.12 | 0.33 | 0.33 | 99 | 1014.0 |
| 20260903142309 | 60 | 312 | 2.0 | 2.0 | 0.12 | 0.33 | 0.33 | 99 | 1014.2 |
| 20260903141805 | 60 | 274 | 0.0 | 1.0 | 0.19 | 0.31 | 0.31 | 99 | 1014.1 |
| 20260903141300 | 60 | 295 | 1.0 | 1.0 | 0.24 | 0.31 | 0.31 | 99 | 1014.1 |
| 20260903140800 | 60 | 260 | 1.0 | 1.0 | 0.17 | 0.28 | 0.28 | 99 | 1014.0 |
| 20260903140255 | 60 | 311 | 1.0 | 2.0 | 0.19 | 0.27 | 0.27 | 99 | 1013.9 |
| 20260903135751 | 60 | 273 | 3.0 | 3.0 | 0.19 | 0.26 | 0.26 | 99 | 1013.9 |